This is the latest recevied weather packets stored in our database for station/object OE6ATD-13. If no packets are shown the sender has not sent any weather packets the latest 10 day(s).
| Time | Temp. | Humidity | Pressure | Rain* | Wind** | Luminosity | Snow |
|---|---|---|---|---|---|---|---|
| 1778040923 | 11.67° C | 82% | 1008.7 hPa | 0 mm | - | 16 W/m² | - |
| 1778040319 | 11.67° C | 81% | 1008.9 hPa | 0 mm | - | 8 W/m² | - |
| 1778039730 | 11.67° C | 80% | 1008.8 hPa | 0 mm | - | 5 W/m² | - |
| 1778039116 | 11.67° C | 78% | 1008.8 hPa | 0 mm | - | 1 W/m² | - |
| 1778038526 | 12.78° C | 72% | 1008.6 hPa | 0 mm | - | 0 W/m² | - |
| 1778037922 | 13.33° C | 71% | 1008.7 hPa | 0 mm | - | 0 W/m² | - |
| 1778037318 | 13.89° C | 71% | 1008.7 hPa | 0 mm | - | 0 W/m² | - |
| 1778036729 | 14.44° C | 70% | 1008.8 hPa | 0 mm | - | 0 W/m² | - |
| 1778036125 | 14.44° C | 70% | 1008.7 hPa | 0 mm | - | 0 W/m² | - |
| 1778035520 | 14.44° C | 70% | 1008.6 hPa | 0 mm | - | 0 W/m² | - |
| 1778034916 | 14.44° C | 70% | 1008.7 hPa | 0 mm | - | 0 W/m² | - |
| 1778034327 | 15° C | 70% | 1008.8 hPa | 0 mm | - | 0 W/m² | - |
| 1778033723 | 15° C | 69% | 1008.6 hPa | 0 mm | - | 0 W/m² | - |
| 1778033119 | 15° C | 69% | 1008.5 hPa | 0 mm | - | 0 W/m² | - |
| 1778032529 | 15° C | 69% | 1008.6 hPa | 0 mm | - | 0 W/m² | - |
| 1778031925 | 15° C | 69% | 1008.4 hPa | 0 mm | - | 0 W/m² | - |
| 1778031321 | 15° C | 68% | 1008.4 hPa | 0 mm | - | 0 W/m² | - |
| 1778030717 | 15° C | 67% | 1008.3 hPa | 0 mm | - | 0 W/m² | - |
| 1778030119 | 15.56° C | 67% | 1008.3 hPa | 0 mm | - | 0 W/m² | - |
| 1778029530 | 15.56° C | 68% | 1008.3 hPa | 0 mm | - | 0 W/m² | - |
| 1778028925 | 15° C | 69% | 1008.2 hPa | 0 mm | - | 0 W/m² | - |
| 1778028321 | 15° C | 68% | 1008.3 hPa | 0 mm | - | 0 W/m² | - |
| 1778027717 | 15° C | 68% | 1008.2 hPa | 0 mm | - | 0 W/m² | - |
| 1778027128 | 15.56° C | 68% | 1008.3 hPa | 0 mm | - | 0 W/m² | - |
| 1778026524 | 15.56° C | 68% | 1008.3 hPa | 0 mm | - | 0 W/m² | - |
* Rain latest hour (hover to see other rain measurements)
** Current wind speed in m/s (hover to see current wind gust speed)